Weather History for Billings, MT

Change the Weather History Date:

Thursday, May 30, 2013

  Actual Average Record
Temperature  
Mean Temperature 51 °F 60 °F  
Max Temperature 54 °F 72 °F 95 °F (1984)
Min Temperature 48 °F 48 °F 36 °F (1982)
Degree Days  
Heating Degree Days 14 6  
Month to date heating degree days 241 303  
Since 1 July heating degree days 6333 6680  
Cooling Degree Days 0 1  
Month to date cooling degree days 27 12  
Year to date cooling degree days 27 13  
Growing Degree Days 1 (Base 50)    
Moisture  
Dew Point 46 °F    
Average Humidity 85    
Maximum Humidity 93    
Minimum Humidity 77    
Precipitation  
Precipitation 0.32 in 0.07 in 0.77 in (1971)
Month to date precipitation 4.16 2.10  
Year to date precipitation 6.32 5.78  
Snow  
Snow 0.00 in 0.00 in T in (1998)
Month to date snowfall T 2.0  
Since 1 July snowfall 40.4 55.0  
Snow Depth 0.00 in    
Sea Level Pressure  
Sea Level Pressure 29.71 in    
Wind  
Wind Speed 19 mph (NW)    
Max Wind Speed 32 mph    
Max Gust Speed 41 mph    
Visibility 10 miles    
Events Rain    
T = Trace of Precipitation, MM = Missing Value Source: NWS Daily Summary

Daily Weather History Graph

Daily Weather History Graph

Search for Another Location

Airport:

Trip Planner

Search our weather history database for the weather conditions in past years. The results will help you decide how hot, cold, wet, or windy it might be!

Date:

Astronomy

May. 30, 2013 Rise Set
Actual Time 5:28 AM MDT 8:55 PM MDT
Civil Twilight 4:51 AM MDT 9:32 PM MDT
Nautical Twilight 4:03 AM MDT 10:21 PM MDT
Astronomical Twilight 3:00 AM MDT 11:24 PM MDT
Moon 12:46 AM MDT (5/30) 11:53 AM MDT (5/30)
Length of Visible Light 16h 40m
Length of Day
15h 26m
Waning Gibbous, 61% of the Moon is Illuminated
May 30
Waning Gibbous
May 31
Last Quarter
Jun 8
New
Jun 16
First Quarter
Jun 23
Full

Hourly Weather History & Observations

Time (MDT) Temp. Dew Point Humidity Pressure Visibility Wind Dir Wind Speed Gust Speed Precip Events Conditions
12:53 AM 51.1 °F 48.0 °F 89% 29.65 in 10.0 mi WNW 8.1 mph - 0.02 in Rain Light Rain
1:53 AM 50.0 °F 48.0 °F 93% 29.64 in 10.0 mi WNW 12.7 mph - 0.03 in Rain Light Rain
2:53 AM 51.1 °F 48.0 °F 89% 29.62 in 10.0 mi WNW 11.5 mph - 0.03 in Rain Light Rain
3:53 AM 51.1 °F 48.0 °F 89% 29.61 in 10.0 mi NW 16.1 mph - 0.02 in Rain Light Rain
4:27 AM 51.1 °F 48.0 °F 89% 29.63 in 10.0 mi NW 16.1 mph - 0.02 in Rain Light Rain
4:53 AM 51.1 °F 48.0 °F 89% 29.61 in 10.0 mi WNW 13.8 mph - 0.03 in Rain Light Rain
5:53 AM 51.1 °F 48.0 °F 89% 29.62 in 10.0 mi WNW 13.8 mph - 0.01 in Rain Light Rain
6:53 AM 51.1 °F 46.9 °F 86% 29.63 in 10.0 mi WNW 16.1 mph - 0.02 in Rain Light Rain
7:53 AM 50.0 °F 46.0 °F 86% 29.65 in 10.0 mi WNW 21.9 mph 26.5 mph 0.04 in Rain Light Rain
8:53 AM 50.0 °F 46.0 °F 86% 29.67 in 10.0 mi WNW 18.4 mph - 0.02 in Rain Light Rain
9:53 AM 51.1 °F 46.9 °F 86% 29.67 in 10.0 mi WNW 16.1 mph 24.2 mph 0.01 in Rain Light Rain
10:53 AM 52.0 °F 45.0 °F 77% 29.67 in 10.0 mi WNW 24.2 mph 39.1 mph 0.01 in Rain Light Rain
11:53 AM 54.0 °F 44.1 °F 69% 29.67 in 10.0 mi WNW 28.8 mph 40.3 mph 0.00 in   Overcast
12:53 PM 51.1 °F 44.1 °F 77% 29.70 in 10.0 mi NW 27.6 mph 36.8 mph 0.00 in Rain Light Rain
1:53 PM 51.1 °F 46.0 °F 83% 29.72 in 10.0 mi NW 19.6 mph 29.9 mph 0.02 in Rain Light Rain
2:53 PM 51.1 °F 46.9 °F 86% 29.73 in 10.0 mi NW 19.6 mph 26.5 mph 0.03 in Rain Light Rain
3:53 PM 51.1 °F 46.0 °F 83% 29.75 in 10.0 mi NW 25.3 mph 31.1 mph 0.02 in Rain Light Rain
4:53 PM 50.0 °F 46.0 °F 86% 29.76 in 10.0 mi NW 18.4 mph - 0.02 in Rain Light Rain
5:53 PM 51.1 °F 46.0 °F 83% 29.77 in 10.0 mi NW 21.9 mph 26.5 mph 0.01 in   Overcast
6:53 PM 51.1 °F 46.0 °F 83% 29.78 in 10.0 mi NW 20.7 mph - 0.00 in Rain Light Rain
7:53 PM 50.0 °F 45.0 °F 83% 29.80 in 10.0 mi NNW 18.4 mph 26.5 mph 0.00 in Rain Light Rain
8:53 PM 48.9 °F 44.1 °F 83% 29.81 in 10.0 mi NNW 19.6 mph - 0.00 in Rain Light Rain
9:53 PM 48.9 °F 44.1 °F 83% 29.82 in 10.0 mi NW 21.9 mph 27.6 mph 0.01 in Rain Light Rain
10:53 PM 48.9 °F 44.1 °F 83% 29.81 in 10.0 mi NW 13.8 mph - 0.00 in Rain Light Rain
11:53 PM 48.9 °F 44.1 °F 83% 29.81 in 10.0 mi NNW 17.3 mph - 0.00 in   Overcast